DW6222 Weather Reports


Display with metric or nautical units.
time (UTC)temp
F
wind
direction
speed
MPH
gust
MPH
rain 1hr
in
rain 24hr
in
rain mn
in
humidity
%
barometer
mb
20260905080047 65 34 3.0 9.0 0.01 0.11 0.02 99 1016.0
20260905074556 65 20 3.0 7.0 0.02 0.12 0.02 99 1015.9
20260905073058 65 56 2.0 7.0 0.01 0.11 0.01 99 1015.9
20260905071554 65 47 1.0 6.0 0.01 0.11 0.01 99 1015.8
20260905070106 65 63 3.0 6.0 0.01 0.11 0.01 99 1015.6
20260905064555 65 62 3.0 9.0 0.00 0.10 0.00 98 1015.4
20260905063056 65 46 4.0 9.0 0.00 0.10 0.00 98 1015.6
20260905061611 65 46 4.0 9.0 0.00 0.10 0.00 98 1015.8
20260905060048 65 14 4.0 10.0 0.00 0.10 0.00 98 1015.7
20260905054602 65 57 4.0 11.0 0.00 0.12 0.00 97 1015.5
20260905053056 65 23 6.0 12.0 0.00 0.12 0.00 97 1015.4
20260905051554 65 44 5.0 12.0 0.00 0.12 0.00 97 1015.4
20260905050050 65 43 4.0 11.0 0.00 0.12 0.00 97 1015.4
20260905044558 65 51 3.0 9.0 0.00 0.27 0.12 98 1015.5
20260905043054 65 42 3.0 9.0 0.00 0.27 0.12 98 1015.4
20260905041557 65 11 3.0 11.0 0.00 0.27 0.12 98 1015.3
20260905040055 65 23 6.0 11.0 0.00 0.27 0.12 98 1015.3
20260905034558 65 15 5.0 11.0 0.00 0.32 0.12 97 1015.3
20260905033057 65 360 5.0 10.0 0.00 0.32 0.12 97 1015.5
20260905031553 65 12 6.0 10.0 0.00 0.32 0.12 97 1015.6
20260905030059 65 38 4.0 10.0 0.00 0.32 0.12 97 1015.5
20260905024559 65 26 5.0 10.0 0.00 0.32 0.12 97 1015.5
20260905023054 65 360 4.0 10.0 0.00 0.32 0.12 97 1015.4
20260905021557 65 18 3.0 8.0 0.00 0.32 0.12 97 1015.3
20260905020059 65 19 4.0 9.0 0.00 0.32 0.12 97 1015.2
20260905014546 65 16 3.0 8.0 0.00 0.32 0.12 97 1015.3
20260905013100 65 360 3.0 8.0 0.00 0.32 0.12 97 1015.1
20260905011602 65 5 2.0 9.0 0.00 0.32 0.12 97 1014.9
20260905010106 66 5 3.0 10.0 0.00 0.32 0.12 97 1014.7
20260905004551 65 30 4.0 10.0 0.00 0.32 0.12 97 1014.6
20260905003059 65 16 5.0 10.0 0.00 0.32 0.12 97 1014.7
20260905001554 65 18 4.0 11.0 0.00 0.32 0.12 97 1014.6
20260905000051 65 5 4.0 9.0 0.00 0.32 0.12 96 1014.4
20260904234551 66 35 3.0 11.0 0.00 0.32 0.12 96 1014.4
20260904233055 66 59 5.0 9.0 0.00 0.32 0.12 96 1014.3
20260904231556 65 48 6.0 11.0 0.00 0.32 0.12 96 1014.3
20260904224603 66 18 5.0 9.0 0.00 0.32 0.12 95 1014.4
20260904223048 66 23 2.0 9.0 0.00 0.32 0.12 96 1014.2
20260904221557 66 22 3.0 11.0 0.00 0.32 0.12 95 1014.1
20260904220056 66 61 6.0 12.0 0.00 0.32 0.12 94 1014.1
20260904214557 67 54 5.0 11.0 0.00 0.32 0.12 94 1014.1
20260904213103 67 22 5.0 13.0 0.00 0.32 0.12 94 1014.0
20260904211558 67 51 5.0 10.0 0.00 0.32 0.12 94 1013.9
20260904210107 67 63 5.0 13.0 0.00 0.32 0.12 94 1013.7
20260904204553 67 48 3.0 11.0 0.00 0.32 0.12 94 1013.8
20260904203049 67 48 4.0 11.0 0.00 0.32 0.12 94 1013.8
20260904201547 67 57 5.0 13.0 0.00 0.32 0.12 93 1013.9
20260904200055 67 49 7.0 13.0 0.00 0.32 0.12 94 1013.7
20260904194554 67 52 5.0 14.0 0.00 0.32 0.12 94 1013.5
20260904193052 67 33 6.0 16.0 0.00 0.32 0.12 94 1013.5
20260904191542 67 85 7.0 15.0 0.00 0.32 0.12 93 1013.3
20260904190055 68 58 8.0 14.0 0.00 0.32 0.12 93 1013.0
20260904184559 68 44 8.0 14.0 0.00 0.32 0.12 92 1013.0
20260904183057 68 99 3.0 11.0 0.00 0.32 0.12 93 1012.9
20260904181555 68 53 6.0 10.0 0.00 0.32 0.12 93 1012.9
20260904180051 68 90 4.0 11.0 0.00 0.32 0.12 94 1012.8
20260904174557 67 57 6.0 11.0 0.00 0.32 0.12 94 1012.7
20260904173057 67 46 6.0 10.0 0.00 0.32 0.12 95 1012.8
20260904171559 67 67 6.0 13.0 0.00 0.32 0.12 95 1012.7
20260904170057 67 46 4.0 14.0 0.00 0.32 0.12 97 1012.7
20260904164558 66 70 6.0 11.0 0.00 0.32 0.12 97 1012.8
20260904163053 66 62 6.0 12.0 0.00 0.32 0.12 97 1012.9
20260904161551 66 56 7.0 13.0 0.00 0.32 0.12 97 1012.6
20260904160053 66 46 5.0 11.0 0.00 0.32 0.12 98 1012.7
20260904154600 66 53 7.0 14.0 0.00 0.32 0.12 98 1012.3
20260904153058 66 90 5.0 13.0 0.00 0.32 0.12 98 1012.2
20260904151554 66 43 5.0 12.0 0.00 0.32 0.12 98 1012.2
20260904150048 66 35 4.0 12.0 0.00 0.32 0.12 99 1012.1
20260904144601 67 39 7.0 10.0 0.00 0.32 0.12 99 1011.9
20260904143054 67 34 4.0 9.0 0.00 0.32 0.12 99 1011.8
20260904141556 67 48 4.0 9.0 0.00 0.32 0.12 99 1011.6
20260904140103 67 38 4.0 9.0 0.00 0.32 0.12 100 1011.5
20260904134605 66 44 5.0 10.0 0.00 0.32 0.12 100 1011.3
20260904133100 66 54 3.0 9.0 0.00 0.32 0.12 100 1011.3
20260904131556 66 44 3.0 9.0 0.00 0.32 0.12 99 1011.1
20260904130054 66 51 3.0 8.0 0.00 0.32 0.12 99 1011.0
20260904124550 66 37 3.0 8.0 0.00 0.32 0.12 99 1010.9
20260904123056 66 77 3.0 8.0 0.00 0.32 0.12 99 1010.7
20260904121556 66 24 3.0 9.0 0.00 0.32 0.12 99 1010.5
20260904120055 66 41 2.0 8.0 0.00 0.32 0.12 99 1010.6
20260904114557 66 20 2.0 7.0 0.00 0.32 0.12 99 1010.5
20260904113045 66 39 2.0 4.0 0.00 0.32 0.12 99 1010.3
20260904111559 66 51 1.0 4.0 0.00 0.32 0.12 99 1010.1
20260904110054 65 41 1.0 4.0 0.00 0.32 0.12 99 1010.0
20260904104549 65 64 1.0 3.0 0.01 0.32 0.12 99 1010.0
20260904103046 65 114 1.0 5.0 0.02 0.32 0.12 99 1010.0
20260904101554 65 0 3.0 6.0 0.04 0.32 0.12 99 1009.5
20260904100103 65 355 5.0 8.0 0.05 0.32 0.12 98 1009.5
20260904094549 65 103 7.0 14.0 0.05 0.31 0.11 98 1009.1
20260904093049 65 113 9.0 16.0 0.06 0.30 0.10 98 1009.1
20260904091551 65 187 4.0 12.0 0.05 0.28 0.08 98 1011.3
20260904090048 65 20 5.0 28.0 0.04 0.27 0.07 98 1011.0
20260904084559 65 341 4.0 8.0 0.04 0.26 0.06 98 1011.2
20260904083052 65 26 7.0 13.0 0.02 0.24 0.04 98 1009.9
20260904081547 65 69 3.0 8.0 0.01 0.23 0.03 98 1010.8